+ View the NASA Portal
+ Center for Near-Earth Object Studies
IMPORTANT:
The SSD Announcement email list is now available. Major changes are coming in the near future, including possible hostname and/or URL changes. To be notified of such changes, subscribe to this email list.
Please visit
this page
for more details.
Don't show this message again
JPL Small-Body Database Browser
Search:
[
help
]
146775 (2001 XD226)
Classification:
Main-belt Asteroid
SPK-ID:
2146775
[
Ephemeris
|
Orbit Diagram
|
Orbital Elements
|
Mission Design
|
Physical Parameters
|
Discovery Circumstances
|
Close-Approach Data
]
[ show orbit diagram ]
Orbital Elements at Epoch 2458600.5 (2019-Apr-27.0) TDB
Reference:
JPL 14
(heliocentric ecliptic J2000)
Element
Value
Uncertainty (1-sigma)
Units
e
.06436893548628078
4.9175e-08
a
2.777190265160797
1.6906e-08
au
q
2.598425484149535
1.4099e-07
au
i
3.336140064131111
4.3477e-06
deg
node
261.2386336568071
0.00010179
deg
peri
146.4223477926138
0.0001105
deg
M
291.9032351368403
4.2327e-05
deg
t
p
2458920.264949431764
(2020-Mar-11.76494943)
0.00019916
TDB
period
1690.467704695797
4.63
1.5436e-05
4.226e-08
d
yr
n
.2129588154804665
1.9446e-09
deg/d
Q
2.95595504617206
1.7995e-08
au
Orbit Determination Parameters
# obs. used (total)
453
data-arc span
8428 days (23.07 yr)
first obs. used
1996-10-04
last obs. used
2019-11-01
planetary ephem.
DE431
SB-pert. ephem.
SB431-N16
condition code
0
norm. resid. RMS
.53539
source
ORB
producer
Otto Matic
solution date
2019-Dec-04 13:01:22
Additional Information
Earth MOID
= 1.60855 au
Jupiter MOID
= 2.30015 au
T_jup
= 3.329
[ show covariance matrix ]
[
Ephemeris
|
Orbit Diagram
|
Orbital Elements
|
Mission Design
|
Physical Parameters
|
Discovery Circumstances
|
Close-Approach Data
]
Physical Parameter Table
Parameter
Symbol
Value
Units
Sigma
Reference
Notes
absolute magnitude
H
16.0
n/a
MPO459680
diameter
diameter
3.982
km
0.280
urn:nasa:pds:neowise_diameters_albedos::2.0[mainbelt] (http://adsabs.harvard.edu/abs/2011ApJ...741...68M)
geometric albedo
albedo
0.036
0.007
urn:nasa:pds:neowise_diameters_albedos::2.0[mainbelt] (http://adsabs.harvard.edu/abs/2012ApJ...759L...8M)
146775 (2001 XD226)
Discovered 2001-Dec-15 by LINEAR at Socorro
Reference:
20070106/Numbers.arc
Last Updated:
2007-01-09
[ show close-approach data ]
[
Ephemeris
|
Orbit Diagram
|
Orbital Elements
|
Mission Design
|
Physical Parameters
|
Discovery Circumstances
|
Close-Approach Data
]
2019-Dec-10 03:12 UT
(server date/time)
Site Manager:
Ryan S. Park
Webmaster
:
Alan B. Chamberlin